Wind_Speed
7 8 8 8 8 8 7 8 8 8 8 8 8 9 9 10 10 10 9 10 10 10 10 10 10 10 10 10 11 11 11 11 11 11 11 11 11 11 11 10 10 10 12
8 9 9 9 9 9 8 9 9 9 9 10 10 10 11 11 11 11 12 11 11 11 11 11 11 12 12 12 12 12 12 12 12 13 13 12 12 12 12 12 12 11 12
9 10 10 10 11 10 9 10 10 10 11 12 12 12 12 13 13 13 13 13 13 12 12 13 13 13 13 13 13 13 14 14 14 14 14 14 14 14 14 13 13 13 13
10 11 11 11 11 10 10 11 11 12 12 13 14 14 15 14 14 14 15 15 14 14 14 14 14 14 14 14 14 15 15 15 15 15 15 15 16 16 15 15 15 15 15
10 11 12 12 12 11 12 12 13 14 14 15 16 16 16 16 16 16 17 16 16 16 16 16 16 16 16 15 16 16 16 17 17 17 17 17 17 17 16 17 17 17 17
10 12 13 13 13 13 13 14 15 15 16 16 17 17 17 17 18 18 18 18 18 17 17 17 18 18 17 17 17 17 17 18 19 18 19 18 18 18 18 19 19 19 18
12 13 14 14 14 14 15 16 16 17 17 17 18 18 18 18 18 19 19 19 19 19 19 19 19 20 19 19 19 19 19 19 20 20 20 20 20 19 19 20 21 21 20
14 15 16 16 16 17 17 18 18 18 19 19 19 19 19 19 19 19 19 20 20 20 20 20 20 21 21 20 20 20 20 21 20 21 22 22 22 21 21 21 21 22 22
16 17 17 17 18 18 19 20 20 20 20 21 21 21 21 21 20 19 20 20 20 20 21 21 21 22 22 21 21 21 21 21 20 21 22 22 22 22 23 23 23 23 23
17 18 18 19 19 19 20 22 21 22 21 21 21 21 22 21 21 21 21 21 22 22 22 23 23 23 23 22 22 22 22 22 22 23 23 22 23 23 23 23 24 24 23
18 18 20 19 20 21 21 21 22 22 22 22 21 22 22 23 22 22 23 23 23 23 24 24 24 24 23 22 22 22 23 23 23 24 24 24 24 24 24 24 25 25 24
19 19 20 22 22 21 22 21 22 22 23 23 23 23 23 23 24 24 24 24 24 24 24 25 25 25 23 22 23 23 23 24 24 24 25 25 25 25 25 24 25 25 25
21 21 22 23 23 23 23 23 23 23 23 23 23 25 25 24 24 24 24 25 25 24 23 24 24 24 24 24 23 23 24 24 24 24 24 25 25 25 25 25 25 26 26
21 23 24 24 24 24 24 24 24 24 24 24 24 25 26 25 25 25 25 25 26 26 25 24 24 24 24 24 23 23 24 24 24 24 23 23 24 24 25 25 26 27 27
23 24 24 24 24 24 24 25 24 25 25 26 26 26 26 26 26 26 25 26 26 27 28 27 25 25 24 24 24 24 24 23 23 24 23 23 24 25 25 25 26 27 28
24 25 24 24 24 24 24 25 25 25 26 26 27 27 27 27 26 26 26 26 27 27 28 28 27 25 25 25 25 24 25 24 24 24 23 23 24 25 25 25 25 26 28
25 24 25 25 24 25 25 26 26 26 26 27 28 28 28 27 27 26 26 26 27 28 28 27 26 27 26 26 26 26 26 26 25 25 25 24 25 26 26 27 27 27 28
25 26 26 25 26 26 26 26 27 27 27 27 28 28 28 27 27 27 26 26 26 26 26 25 25 26 27 27 26 27 27 26 26 26 25 26 26 26 26 26 27 27 27
25 26 26 27 27 26 26 27 27 27 27 27 28 27 28 27 27 26 25 24 25 24 24 24 24 24 25 25 25 26 26 26 26 26 26 27 27 26 26 26 26 27 27
26 26 27 28 28 27 26 27 27 27 27 27 28 27 27 26 26 25 25 25 25 25 24 24 24 24 24 24 24 25 25 26 26 25 26 27 27 27 28 26 26 27 27
26 27 26 27 27 27 27 28 27 27 27 27 27 26 25 25 24 25 25 25 25 25 24 24 24 24 24 24 25 25 25 25 25 25 26 26 27 27 28 28 28 28 28
26 27 26 26 27 27 28 28 28 27 28 27 27 26 25 25 25 25 25 25 25 24 23 23 23 24 24 24 24 25 25 25 25 24 25 26 26 27 28 28 29 29 29
26 27 26 26 27 28 28 27 27 27 26 26 25 24 23 23 23 23 24 23 23 23 23 23 23 24 24 24 25 26 26 25 25 25 25 25 26 27 28 29 30 31 31
27 27 27 27 27 26 26 26 27 26 25 24 23 23 22 22 23 23 23 23 22 22 23 23 24 24 24 24 25 26 26 26 26 26 26 26 26 27 28 29 30 31 32
28 27 27 27 26 25 25 26 26 25 24 24 23 22 22 22 22 22 22 22 22 23 23 24 25 25 25 25 25 25 26 27 27 26 26 26 26 26 27 29 30 31 31
26 26 26 24 24 24 25 25 25 23 23 23 22 22 22 22 22 22 22 23 23 23 24 24 24 24 25 25 25 25 26 27 27 27 26 25 25 26 27 28 29 30 31
Wind_Direction
297 300 298 296 294 290 291 292 293 295 295 294 293 295 295 295 296 297 294 294 292 291 286 282 278 275 273 272 271 268 265 263 261 258 256 254 252 249 249 249 252 251 248
296 299 296 294 294 290 290 292 293 291 291 292 292 293 293 293 294 294 293 293 291 289 287 284 280 276 273 272 271 270 268 266 264 261 258 255 253 252 251 250 250 251 250
298 297 295 292 291 287 288 289 292 290 290 291 291 290 289 290 291 291 290 290 289 287 285 283 281 277 274 273 272 270 268 266 263 261 259 257 254 252 252 252 253 254 253
295 295 294 292 287 287 289 289 289 289 289 290 290 289 287 286 286 288 289 289 289 288 288 285 282 280 277 275 272 268 267 266 262 262 260 257 254 252 251 252 253 253 253
293 293 294 294 292 293 293 291 291 291 291 291 288 287 287 285 286 289 289 289 288 288 288 287 283 282 281 278 275 269 266 266 263 262 260 257 255 254 253 252 253 253 252
294 296 296 296 298 298 296 294 291 292 293 292 289 287 287 287 286 288 289 289 288 287 289 288 285 284 283 280 278 274 272 268 265 263 261 259 257 254 253 253 252 253 253
297 297 297 296 296 297 297 295 293 294 294 292 291 289 287 287 287 287 287 287 287 287 288 287 286 285 283 282 279 274 273 271 268 265 262 260 259 255 255 256 255 254 254
296 296 295 296 296 298 299 297 295 295 294 294 292 290 287 287 287 287 286 286 285 285 285 286 286 285 282 281 280 276 273 272 270 267 264 262 260 256 256 257 257 256 256
295 296 295 299 298 298 301 300 297 297 297 296 294 292 289 288 287 287 286 286 284 285 285 285 284 282 280 279 277 277 274 272 271 269 266 265 262 261 257 255 257 257 257
298 298 297 298 297 298 301 300 299 301 299 297 295 294 291 289 287 286 285 284 283 284 284 284 283 282 279 277 275 275 273 273 272 270 268 266 265 263 259 257 258 258 257
299 298 300 299 298 299 300 301 302 303 301 299 297 296 293 291 288 287 286 285 284 283 282 282 282 282 279 275 273 273 273 274 273 270 270 268 267 266 261 259 260 259 256
300 301 301 301 301 302 303 303 303 302 301 299 298 299 296 292 290 289 288 287 286 285 284 284 282 281 278 275 274 273 274 275 275 273 271 269 267 265 263 262 261 259 257
297 299 301 303 303 304 305 305 304 303 301 300 299 300 299 296 291 290 290 288 286 286 286 286 286 283 279 277 276 275 274 274 274 274 271 269 266 265 263 263 261 258 256
294 297 298 301 303 303 304 304 304 302 301 301 301 300 300 299 293 292 292 289 287 285 287 288 288 285 283 280 279 278 276 273 272 272 272 269 266 266 262 263 261 258 257
294 296 299 300 300 299 301 303 303 302 301 301 302 302 301 302 298 294 293 291 290 289 288 289 291 287 285 284 281 278 276 274 272 272 272 269 266 265 264 264 263 260 258
295 295 300 300 299 298 299 301 301 301 300 301 302 302 302 301 300 298 296 294 292 292 291 288 288 286 285 284 283 279 278 276 272 271 272 270 266 265 266 265 264 262 259
296 295 300 297 299 300 299 299 300 301 301 301 302 301 301 300 300 298 296 295 294 292 292 289 287 286 286 285 284 281 280 279 275 273 271 270 267 266 266 265 265 263 261
297 297 298 296 296 298 298 300 301 300 300 301 301 301 300 299 300 299 297 296 295 294 294 292 290 288 286 284 283 282 281 279 278 275 272 271 268 267 265 264 262 263 262
298 296 298 296 297 298 299 300 300 300 299 299 299 300 299 298 299 299 298 298 296 296 295 295 293 291 289 286 283 284 283 280 278 276 272 270 268 267 265 264 262 262 261
299 297 300 298 299 299 298 297 298 299 300 300 299 299 299 298 298 298 298 298 299 297 295 294 294 293 292 289 288 288 287 283 279 277 275 271 269 266 266 265 263 263 261
303 302 301 300 299 298 297 296 297 298 299 301 300 298 296 295 296 297 299 299 299 298 296 295 295 295 294 291 290 291 290 288 284 279 277 275 271 267 265 264 262 262 260
303 302 301 299 299 300 300 298 298 299 299 299 298 296 294 294 295 297 298 297 297 298 298 296 296 298 296 293 292 293 291 290 288 283 279 278 274 270 266 264 263 262 261
304 302 301 299 299 299 299 298 299 299 298 299 298 296 295 295 295 296 296 296 297 297 297 297 298 298 297 295 294 294 294 291 286 285 283 280 276 271 268 266 264 263 262
304 304 303 302 300 299 299 298 299 300 298 297 296 296 295 294 293 295 294 296 297 298 299 299 299 299 296 295 295 294 293 292 290 286 284 281 278 274 270 268 266 265 263
305 306 305 303 301 302 300 300 300 298 297 296 295 296 295 294 296 295 295 295 298 299 299 300 299 299 296 295 295 294 293 293 293 291 287 283 279 276 274 272 270 267 264
305 306 306 305 304 302 301 300 299 298 296 295 294 294 294 294 295 297 297 298 300 301 300 300 299 298 296 296 295 294 294 294 293 292 288 284 281 278 276 276 273 269 266
Height
5879 5878 5878 5878 5877 5876 5876 5876 5875 5875 5874 5874 5873 5872 5872 5871 5870 5869 5868 5868 5867 5867 5866 5866 5865 5865 5865 5865 5865 5865 5865 5865 5865 5865 5866 5866 5867 5867 5868 5868 5869 5870 5870
5878 5877 5877 5876 5876 5875 5875 5874 5874 5873 5873 5872 5871 5871 5870 5869 5869 5868 5867 5866 5865 5865 5864 5864 5864 5863 5863 5863 5863 5863 5863 5863 5863 5863 5863 5864 5864 5865 5865 5866 5867 5867 5868
5876 5875 5875 5874 5874 5873 5873 5872 5872 5871 5871 5870 5869 5869 5868 5867 5866 5866 5865 5864 5863 5862 5862 5862 5861 5861 5860 5860 5860 5860 5860 5860 5860 5860 5861 5861 5862 5862 5863 5864 5864 5865 5866
5874 5874 5873 5873 5872 5872 5871 5871 5870 5869 5869 5868 5867 5866 5865 5865 5864 5863 5862 5861 5860 5860 5859 5859 5858 5858 5858 5858 5857 5857 5857 5857 5857 5857 5858 5859 5859 5859 5860 5861 5861 5862 5863
5873 5872 5871 5871 5871 5870 5870 5869 5868 5867 5866 5865 5865 5864 5863 5862 5861 5860 5859 5859 5858 5857 5856 5856 5855 5855 5854 5854 5854 5854 5854 5854 5854 5854 5855 5855 5856 5856 5856 5858 5858 5859 5860
5872 5871 5870 5869 5869 5868 5867 5867 5866 5865 5863 5862 5862 5861 5860 5859 5858 5857 5856 5855 5854 5853 5853 5852 5852 5851 5851 5851 5850 5850 5850 5850 5850 5850 5851 5852 5852 5853 5853 5854 5855 5856 5856
5870 5869 5868 5867 5866 5865 5865 5864 5863 5862 5861 5860 5859 5858 5857 5856 5855 5854 5853 5852 5851 5850 5849 5848 5848 5847 5847 5847 5846 5846 5846 5846 5846 5846 5847 5848 5848 5849 5849 5850 5851 5852 5852
5867 5866 5865 5865 5864 5862 5862 5861 5860 5859 5858 5857 5855 5854 5853 5852 5851 5850 5849 5848 5847 5846 5845 5844 5843 5843 5842 5842 5842 5842 5842 5841 5842 5842 5843 5844 5844 5845 5845 5846 5847 5847 5848
5864 5863 5862 5861 5860 5859 5858 5858 5857 5855 5854 5853 5852 5850 5849 5848 5847 5846 5845 5844 5843 5842 5841 5840 5839 5838 5838 5838 5837 5837 5837 5837 5837 5837 5838 5839 5839 5839 5839 5840 5841 5843 5844
5861 5860 5859 5858 5857 5856 5854 5853 5852 5851 5850 5849 5848 5846 5845 5843 5842 5841 5840 5839 5838 5837 5836 5835 5834 5833 5833 5832 5832 5832 5832 5833 5833 5833 5833 5834 5834 5834 5835 5836 5837 5838 5839
5858 5857 5856 5855 5854 5853 5851 5850 5848 5847 5845 5844 5843 5842 5840 5838 5837 5836 5835 5834 5833 5832 5831 5830 5829 5828 5827 5827 5827 5827 5827 5828 5828 5828 5829 5829 5829 5829 5829 5830 5831 5833 5834
5855 5853 5853 5852 5850 5849 5847 5846 5844 5843 5841 5839 5838 5836 5835 5833 5832 5831 5830 5828 5827 5826 5825 5824 5823 5822 5822 5822 5822 5822 5822 5822 5822 5823 5824 5824 5824 5824 5824 5825 5826 5828 5829
5853 5851 5850 5849 5846 5845 5843 5842 5840 5838 5837 5835 5833 5831 5829 5828 5826 5825 5824 5823 5822 5820 5819 5818 5817 5817 5816 5816 5816 5816 5817 5817 5817 5817 5817 5818 5818 5818 5818 5819 5821 5822 5824
5849 5848 5846 5845 5843 5841 5839 5838 5836 5834 5832 5830 5828 5826 5824 5823 5821 5819 5818 5817 5815 5814 5813 5812 5812 5811 5811 5810 5811 5811 5810 5811 5811 5811 5812 5812 5812 5812 5812 5814 5815 5816 5818
5845 5843 5841 5840 5838 5837 5835 5833 5831 5829 5827 5825 5823 5821 5819 5817 5815 5813 5812 5811 5809 5808 5807 5806 5806 5805 5805 5805 5805 5805 5804 5804 5804 5805 5805 5806 5806 5806 5807 5807 5808 5810 5811
5842 5840 5836 5835 5834 5832 5831 5829 5826 5824 5822 5820 5818 5816 5814 5812 5810 5808 5806 5805 5804 5802 5801 5801 5800 5799 5798 5799 5799 5798 5798 5798 5798 5798 5799 5799 5799 5800 5801 5801 5802 5803 5805
5838 5834 5832 5831 5829 5828 5826 5824 5822 5819 5817 5815 5813 5811 5809 5807 5805 5803 5801 5799 5798 5796 5795 5795 5794 5793 5793 5793 5793 5792 5792 5792 5791 5791 5792 5792 5793 5794 5794 5795 5796 5797 5798
5833 5831 5828 5826 5825 5822 5820 5818 5816 5814 5812 5810 5808 5806 5803 5801 5799 5797 5795 5793 5792 5790 5790 5789 5788 5787 5787 5786 5786 5786 5785 5785 5784 5784 5785 5785 5786 5787 5787 5788 5789 5790 5791
5829 5826 5823 5821 5819 5817 5815 5813 5811 5809 5807 5805 5803 5800 5798 5796 5794 5792 5790 5788 5786 5785 5785 5784 5783 5782 5781 5780 5779 5779 5778 5778 5777 5777 5777 5778 5779 5779 5780 5781 5781 5782 5784
5824 5821 5818 5816 5814 5812 5810 5808 5805 5804 5801 5799 5797 5794 5792 5790 5788 5786 5785 5783 5781 5780 5780 5779 5778 5776 5776 5774 5773 5773 5772 5771 5771 5770 5770 5770 5771 5771 5772 5773 5774 5775 5776
5818 5816 5813 5811 5808 5807 5804 5802 5799 5797 5795 5793 5791 5789 5786 5785 5783 5781 5780 5778 5777 5776 5775 5774 5773 5771 5770 5769 5768 5767 5766 5765 5764 5763 5763 5762 5763 5764 5764 5766 5767 5767 5769
5813 5811 5808 5806 5803 5801 5798 5796 5793 5791 5789 5787 5785 5783 5781 5779 5778 5776 5775 5773 5772 5770 5769 5769 5767 5766 5764 5763 5762 5760 5760 5759 5757 5756 5755 5755 5755 5755 5756 5757 5758 5759 5761
5808 5805 5803 5800 5798 5795 5792 5790 5787 5785 5783 5781 5779 5778 5776 5774 5773 5771 5770 5768 5766 5765 5764 5763 5762 5760 5759 5757 5755 5754 5753 5752 5751 5750 5748 5747 5747 5747 5748 5749 5750 5751 5752
5802 5799 5797 5794 5791 5789 5786 5784 5781 5779 5777 5775 5774 5772 5771 5769 5768 5766 5765 5763 5761 5760 5759 5758 5756 5754 5753 5751 5749 5747 5746 5744 5743 5742 5741 5739 5738 5738 5739 5740 5741 5742 5743
5796 5793 5790 5787 5784 5782 5780 5777 5775 5773 5771 5769 5768 5767 5765 5764 5763 5761 5760 5758 5756 5755 5753 5752 5750 5748 5746 5745 5743 5741 5739 5737 5735 5734 5733 5732 5731 5731 5731 5731 5732 5733 5733
5789 5787 5784 5781 5778 5776 5773 5771 5769 5766 5765 5763 5762 5761 5760 5759 5757 5756 5754 5752 5751 5749 5747 5745 5744 5742 5740 5738 5736 5734 5732 5730 5728 5726 5725 5724 5724 5723 5723 5723 5723 5723 5724